| time (UTC) | temp C | wind direction | speed KPH | gust KPH | rain 1hr cm | rain 24hr cm | rain mn cm | humidity % | barometer mb |
| 20260906224023 | 33 | 157 | 0.0 | 4.8 | 0.00 | 0.00 | 0.00 | 56 | 1009.5 |
| 20260906223504 | 33 | 250 | 0.0 | 6.4 | 0.00 | 0.00 | 0.00 | 56 | 1009.3 |
| 20260906223058 | 33 | 232 | 0.0 | 6.4 | 0.00 | 0.00 | 0.00 | 56 | 1009.3 |
| 20260906222525 | 33 | 38 | 0.0 | 6.4 | 0.00 | 0.00 | 0.00 | 56 | 1009.3 |
| 20260906222005 | 33 | 174 | 1.6 | 6.4 | 0.00 | 0.00 | 0.00 | 56 | 1009.3 |
| 20260906221550 | 33 | 330 | 0.0 | 1.6 | 0.00 | 0.00 | 0.00 | 57 | 1009.3 |
| 20260906221028 | 33 | 330 | 0.0 | 1.6 | 0.00 | 0.00 | 0.00 | 57 | 1009.3 |
| 20260906220507 | 33 | 330 | 0.0 | 0.0 | 0.00 | 0.00 | 0.00 | 57 | 1009.1 |
| 20260906220052 | 33 | 330 | 0.0 | 0.0 | 0.00 | 0.00 | 0.00 | 57 | 1009.2 |
| 20260906215531 | 33 | 330 | 0.0 | 0.0 | 0.00 | 0.00 | 0.00 | 57 | 1009.2 |
| 20260906215011 | 33 | 330 | 0.0 | 0.0 | 0.00 | 0.00 | 0.00 | 56 | 1009.2 |
| 20260906214607 | 33 | 330 | 0.0 | 1.6 | 0.00 | 0.00 | 0.00 | 56 | 1009.3 |
| 20260906214034 | 33 | 330 | 0.0 | 1.6 | 0.00 | 0.00 | 0.00 | 56 | 1009.2 |
| 20260906213515 | 33 | 330 | 0.0 | 1.6 | 0.00 | 0.00 | 0.00 | 55 | 1009.1 |
| 20260906213057 | 33 | 330 | 0.0 | 0.0 | 0.00 | 0.00 | 0.00 | 54 | 1009.2 |
| 20260906212536 | 33 | 330 | 0.0 | 0.0 | 0.00 | 0.00 | 0.00 | 54 | 1009.2 |
| 20260906212017 | 33 | 330 | 0.0 | 0.0 | 0.00 | 0.00 | 0.00 | 54 | 1009.3 |
| 20260906211558 | 33 | 330 | 0.0 | 0.0 | 0.00 | 0.00 | 0.00 | 53 | 1009.4 |
| 20260906211036 | 34 | 330 | 0.0 | 1.6 | 0.00 | 0.00 | 0.00 | 52 | 1009.7 |
| 20260906210516 | 34 | 330 | 0.0 | 3.2 | 0.00 | 0.00 | 0.00 | 51 | 1009.9 |
| 20260906210116 | 34 | 330 | 0.0 | 3.2 | 0.00 | 0.00 | 0.00 | 51 | 1010.0 |
| 20260906205540 | 34 | 330 | 0.0 | 4.8 | 0.00 | 0.00 | 0.00 | 53 | 1010.0 |
| 20260906205019 | 34 | 330 | 1.6 | 4.8 | 0.00 | 0.00 | 0.00 | 52 | 1010.2 |
| 20260906204626 | 34 | 347 | 0.0 | 3.2 | 0.00 | 0.00 | 0.00 | 52 | 1010.1 |
| 20260906204046 | 34 | 347 | 0.0 | 9.7 | 0.00 | 0.00 | 0.00 | 52 | 1010.2 |
| 20260906203527 | 35 | 347 | 1.6 | 9.7 | 0.00 | 0.00 | 0.00 | 52 | 1010.3 |
| 20260906203002 | 35 | 335 | 0.0 | 6.4 | 0.00 | 0.00 | 0.00 | 52 | 1010.4 |
| 20260906202546 | 35 | 333 | 0.0 | 9.7 | 0.00 | 0.00 | 0.00 | 51 | 1010.5 |
| 20260906202025 | 35 | 335 | 3.2 | 9.7 | 0.00 | 0.00 | 0.00 | 51 | 1010.5 |
| 20260906201517 | 35 | 311 | 0.0 | 3.2 | 0.00 | 0.00 | 0.00 | 52 | 1010.5 |
| 20260906201049 | 35 | 311 | 0.0 | 6.4 | 0.00 | 0.00 | 0.00 | 51 | 1010.6 |
| 20260906200528 | 35 | 311 | 1.6 | 6.4 | 0.00 | 0.00 | 0.00 | 49 | 1010.7 |
| 20260906200007 | 35 | 311 | 0.0 | 9.7 | 0.00 | 0.00 | 0.00 | 49 | 1010.8 |
| 20260906195550 | 35 | 311 | 3.2 | 9.7 | 0.00 | 0.00 | 0.00 | 47 | 1010.7 |
| 20260906195030 | 35 | 170 | 0.0 | 8.0 | 0.00 | 0.00 | 0.00 | 48 | 1010.9 |
| 20260906194509 | 35 | 170 | 1.6 | 8.0 | 0.00 | 0.00 | 0.00 | 48 | 1010.9 |
| 20260906194054 | 35 | 330 | 1.6 | 8.0 | 0.00 | 0.00 | 0.00 | 48 | 1010.9 |
| 20260906193532 | 35 | 280 | 0.0 | 8.0 | 0.00 | 0.00 | 0.00 | 49 | 1011.0 |
| 20260906193021 | 35 | 266 | 0.0 | 4.8 | 0.00 | 0.00 | 0.00 | 49 | 1011.1 |
| 20260906192555 | 35 | 271 | 0.0 | 3.2 | 0.00 | 0.00 | 0.00 | 48 | 1011.1 |
| 20260906192035 | 35 | 271 | 0.0 | 6.4 | 0.00 | 0.00 | 0.00 | 48 | 1011.1 |
| 20260906191515 | 35 | 271 | 1.6 | 11.3 | 0.00 | 0.00 | 0.00 | 48 | 1011.2 |
| 20260906191059 | 35 | 269 | 0.0 | 11.3 | 0.00 | 0.00 | 0.00 | 49 | 1011.2 |
| 20260906190537 | 35 | 159 | 0.0 | 4.8 | 0.00 | 0.00 | 0.00 | 49 | 1011.3 |
| 20260906190017 | 35 | 159 | 0.0 | 3.2 | 0.00 | 0.00 | 0.00 | 50 | 1011.5 |
| 20260906185602 | 35 | 159 | 0.0 | 1.6 | 0.00 | 0.00 | 0.00 | 48 | 1011.5 |
| 20260906185039 | 35 | 159 | 0.0 | 1.6 | 0.00 | 0.00 | 0.00 | 49 | 1011.6 |
| 20260906184519 | 35 | 159 | 0.0 | 1.6 | 0.00 | 0.00 | 0.00 | 49 | 1011.7 |
| 20260906184105 | 35 | 159 | 0.0 | 3.2 | 0.00 | 0.00 | 0.00 | 47 | 1011.8 |
| 20260906183542 | 35 | 159 | 0.0 | 3.2 | 0.00 | 0.00 | 0.00 | 47 | 1011.8 |
| 20260906183025 | 35 | 159 | 0.0 | 4.8 | 0.00 | 0.00 | 0.00 | 48 | 1011.9 |
| 20260906182501 | 35 | 160 | 0.0 | 1.6 | 0.00 | 0.00 | 0.00 | 49 | 1012.0 |
| 20260906182045 | 35 | 160 | 0.0 | 6.4 | 0.00 | 0.00 | 0.00 | 49 | 1012.1 |
| 20260906181525 | 35 | 160 | 0.0 | 6.4 | 0.00 | 0.00 | 0.00 | 49 | 1012.1 |
| 20260906181004 | 35 | 159 | 0.0 | 1.6 | 0.00 | 0.00 | 0.00 | 50 | 1012.1 |
| 20260906180549 | 34 | 159 | 0.0 | 1.6 | 0.00 | 0.00 | 0.00 | 50 | 1012.2 |
| 20260906180039 | 34 | 159 | 0.0 | 1.6 | 0.00 | 0.00 | 0.00 | 51 | 1012.2 |
| 20260906175507 | 34 | 159 | 0.0 | 1.6 | 0.00 | 0.00 | 0.00 | 53 | 1012.4 |
| 20260906175048 | 34 | 159 | 0.0 | 1.6 | 0.00 | 0.00 | 0.00 | 54 | 1012.4 |
| 20260906174527 | 34 | 159 | 0.0 | 4.8 | 0.00 | 0.00 | 0.00 | 54 | 1012.5 |
| 20260906174001 | 33 | 159 | 0.0 | 4.8 | 0.00 | 0.00 | 0.00 | 54 | 1012.5 |
| 20260906173543 | 33 | 158 | 0.0 | 1.6 | 0.00 | 0.00 | 0.00 | 55 | 1012.6 |
| 20260906173023 | 33 | 158 | 0.0 | 1.6 | 0.00 | 0.00 | 0.00 | 58 | 1012.7 |
| 20260906172504 | 33 | 158 | 0.0 | 0.0 | 0.00 | 0.00 | 0.00 | 58 | 1012.8 |
| 20260906172046 | 33 | 158 | 0.0 | 0.0 | 0.00 | 0.00 | 0.00 | 58 | 1012.8 |
| 20260906171525 | 33 | 158 | 0.0 | 1.6 | 0.00 | 0.00 | 0.00 | 57 | 1012.9 |
| 20260906171004 | 33 | 158 | 0.0 | 1.6 | 0.00 | 0.00 | 0.00 | 57 | 1013.1 |
| 20260906170548 | 33 | 158 | 0.0 | 1.6 | 0.00 | 0.00 | 0.00 | 57 | 1013.1 |
| 20260906170028 | 33 | 158 | 0.0 | 1.6 | 0.00 | 0.00 | 0.00 | 56 | 1013.2 |
| 20260906165507 | 33 | 158 | 0.0 | 1.6 | 0.00 | 0.00 | 0.00 | 57 | 1013.3 |
| 20260906165051 | 33 | 158 | 0.0 | 1.6 | 0.00 | 0.00 | 0.00 | 58 | 1013.4 |
| 20260906164531 | 32 | 158 | 0.0 | 3.2 | 0.00 | 0.00 | 0.00 | 60 | 1013.3 |
| 20260906164011 | 32 | 155 | 0.0 | 3.2 | 0.00 | 0.00 | 0.00 | 62 | 1013.4 |
| 20260906163554 | 32 | 155 | 0.0 | 3.2 | 0.00 | 0.00 | 0.00 | 60 | 1013.4 |
| 20260906163034 | 32 | 155 | 0.0 | 3.2 | 0.00 | 0.00 | 0.00 | 60 | 1013.4 |
| 20260906162514 | 32 | 162 | 0.0 | 4.8 | 0.00 | 0.00 | 0.00 | 61 | 1013.3 |
| 20260906162057 | 32 | 166 | 0.0 | 4.8 | 0.00 | 0.00 | 0.00 | 62 | 1013.3 |
| 20260906161539 | 32 | 167 | 0.0 | 3.2 | 0.00 | 0.00 | 0.00 | 61 | 1013.3 |
| 20260906161017 | 32 | 242 | 0.0 | 3.2 | 0.00 | 0.00 | 0.00 | 64 | 1013.3 |
| 20260906160600 | 32 | 242 | 0.0 | 3.2 | 0.00 | 0.00 | 0.00 | 64 | 1013.3 |
| 20260906160044 | 31 | 242 | 0.0 | 3.2 | 0.00 | 0.00 | 0.00 | 64 | 1013.3 |
| 20260906155520 | 31 | 191 | 0.0 | 0.0 | 0.00 | 0.00 | 0.00 | 65 | 1013.3 |
| 20260906155104 | 31 | 192 | 0.0 | 1.6 | 0.00 | 0.00 | 0.00 | 66 | 1013.2 |
| 20260906154546 | 31 | 191 | 0.0 | 1.6 | 0.00 | 0.00 | 0.00 | 67 | 1013.2 |
| 20260906154023 | 31 | 192 | 0.0 | 1.6 | 0.00 | 0.00 | 0.00 | 67 | 1013.2 |
| 20260906153503 | 31 | 61 | 0.0 | 1.6 | 0.00 | 0.00 | 0.00 | 67 | 1013.2 |
| 20260906153109 | 30 | 189 | 0.0 | 3.2 | 0.00 | 0.00 | 0.00 | 68 | 1013.2 |
| 20260906152525 | 30 | 189 | 0.0 | 3.2 | 0.00 | 0.00 | 0.00 | 69 | 1013.2 |
| 20260906152005 | 30 | 192 | 0.0 | 3.2 | 0.00 | 0.00 | 0.00 | 70 | 1013.2 |
| 20260906151557 | 30 | 200 | 0.0 | 0.0 | 0.00 | 0.00 | 0.00 | 70 | 1013.3 |
| 20260906151028 | 30 | 200 | 0.0 | 0.0 | 0.00 | 0.00 | 0.00 | 70 | 1013.2 |
| 20260906150508 | 29 | 200 | 0.0 | 0.0 | 0.00 | 0.00 | 0.00 | 70 | 1013.3 |
| 20260906150052 | 29 | 200 | 0.0 | 0.0 | 0.00 | 0.00 | 0.00 | 70 | 1013.3 |
| 20260906145531 | 28 | 200 | 0.0 | 3.2 | 0.00 | 0.00 | 0.00 | 70 | 1013.2 |
| 20260906145011 | 28 | 200 | 0.0 | 3.2 | 0.00 | 0.00 | 0.00 | 70 | 1013.2 |
| 20260906144555 | 28 | 200 | 0.0 | 1.6 | 0.00 | 0.00 | 0.00 | 69 | 1013.2 |
| 20260906144029 | 28 | 200 | 0.0 | 1.6 | 0.00 | 0.00 | 0.00 | 70 | 1013.3 |
| 20260906143510 | 28 | 200 | 0.0 | 1.6 | 0.00 | 0.00 | 0.00 | 68 | 1013.2 |
| 20260906143053 | 28 | 200 | 0.0 | 1.6 | 0.00 | 0.00 | 0.00 | 68 | 1013.3 |
| 20260906142533 | 27 | 351 | 0.0 | 4.8 | 0.00 | 0.00 | 0.00 | 68 | 1013.3 |
| 20260906142011 | 27 | 339 | 0.0 | 1.6 | 0.00 | 0.00 | 0.00 | 66 | 1013.2 |
| 20260906141554 | 27 | 8 | 0.0 | 1.6 | 0.00 | 0.00 | 0.00 | 66 | 1013.3 |
| 20260906141034 | 27 | 8 | 0.0 | 3.2 | 0.00 | 0.00 | 0.00 | 64 | 1013.3 |
| 20260906140512 | 27 | 8 | 0.0 | 6.4 | 0.00 | 0.00 | 0.00 | 65 | 1013.3 |
| 20260906140056 | 27 | 354 | 1.6 | 6.4 | 0.00 | 0.00 | 0.00 | 65 | 1013.2 |
| 20260906135536 | 26 | 349 | 0.0 | 0.0 | 0.00 | 0.00 | 0.00 | 63 | 1013.3 |
| 20260906135017 | 26 | 349 | 0.0 | 3.2 | 0.00 | 0.00 | 0.00 | 63 | 1013.3 |
| 20260906134615 | 26 | 349 | 0.0 | 3.2 | 0.00 | 0.00 | 0.00 | 65 | 1013.3 |
| 20260906134039 | 26 | 352 | 0.0 | 6.4 | 0.00 | 0.00 | 0.00 | 63 | 1013.3 |
| 20260906133521 | 26 | 150 | 0.0 | 0.0 | 0.00 | 0.00 | 0.00 | 63 | 1013.2 |
| 20260906133109 | 26 | 153 | 0.0 | 0.0 | 0.00 | 0.00 | 0.00 | 62 | 1013.1 |
| 20260906132543 | 26 | 153 | 0.0 | 0.0 | 0.00 | 0.00 | 0.00 | 62 | 1013.0 |
| 20260906132021 | 26 | 153 | 0.0 | 0.0 | 0.00 | 0.00 | 0.00 | 62 | 1013.0 |
| 20260906131501 | 26 | 153 | 0.0 | 0.0 | 0.00 | 0.00 | 0.00 | 62 | 1013.0 |
| 20260906131044 | 26 | 153 | 0.0 | 0.0 | 0.00 | 0.00 | 0.00 | 62 | 1013.0 |
| 20260906130524 | 25 | 153 | 0.0 | 0.0 | 0.00 | 0.00 | 0.00 | 63 | 1012.9 |
| 20260906130004 | 25 | 153 | 0.0 | 0.0 | 0.00 | 0.00 | 0.00 | 64 | 1012.9 |
| 20260906125548 | 25 | 153 | 0.0 | 0.0 | 0.00 | 0.00 | 0.00 | 64 | 1012.8 |
| 20260906125029 | 25 | 153 | 0.0 | 0.0 | 0.00 | 0.00 | 0.00 | 64 | 1012.8 |
| 20260906124506 | 25 | 153 | 0.0 | 0.0 | 0.00 | 0.00 | 0.00 | 64 | 1012.8 |
| 20260906124050 | 25 | 153 | 0.0 | 0.0 | 0.00 | 0.00 | 0.00 | 62 | 1012.8 |
| 20260906123531 | 25 | 153 | 0.0 | 0.0 | 0.00 | 0.00 | 0.00 | 62 | 1012.6 |
| 20260906123017 | 25 | 153 | 0.0 | 0.0 | 0.00 | 0.00 | 0.00 | 62 | 1012.5 |
| 20260906122553 | 25 | 153 | 0.0 | 0.0 | 0.00 | 0.00 | 0.00 | 62 | 1012.5 |
| 20260906122033 | 25 | 153 | 0.0 | 0.0 | 0.00 | 0.00 | 0.00 | 62 | 1012.4 |
| 20260906121514 | 25 | 153 | 0.0 | 0.0 | 0.00 | 0.00 | 0.00 | 62 | 1012.4 |
| 20260906121055 | 25 | 153 | 0.0 | 0.0 | 0.00 | 0.00 | 0.00 | 61 | 1012.5 |
| 20260906120537 | 25 | 153 | 0.0 | 0.0 | 0.00 | 0.00 | 0.00 | 62 | 1012.3 |
| 20260906120015 | 25 | 153 | 0.0 | 0.0 | 0.00 | 0.00 | 0.00 | 61 | 1012.3 |
| 20260906115559 | 25 | 153 | 0.0 | 0.0 | 0.00 | 0.00 | 0.00 | 62 | 1012.2 |
| 20260906115039 | 25 | 153 | 0.0 | 0.0 | 0.00 | 0.00 | 0.00 | 61 | 1012.2 |
| 20260906114522 | 25 | 153 | 0.0 | 0.0 | 0.00 | 0.00 | 0.00 | 58 | 1012.1 |
| 20260906114104 | 24 | 153 | 0.0 | 1.6 | 0.00 | 0.00 | 0.00 | 59 | 1012.2 |
| 20260906113541 | 24 | 11 | 0.0 | 0.0 | 0.00 | 0.00 | 0.00 | 60 | 1012.2 |
| 20260906113021 | 24 | 11 | 0.0 | 0.0 | 0.00 | 0.00 | 0.00 | 58 | 1012.1 |
| 20260906112604 | 24 | 11 | 0.0 | 0.0 | 0.00 | 0.00 | 0.00 | 57 | 1012.0 |
| 20260906112045 | 24 | 11 | 0.0 | 0.0 | 0.00 | 0.00 | 0.00 | 57 | 1012.0 |
| 20260906111534 | 24 | 11 | 0.0 | 0.0 | 0.00 | 0.00 | 0.00 | 57 | 1012.0 |
| 20260906111010 | 24 | 11 | 0.0 | 0.0 | 0.00 | 0.00 | 0.00 | 57 | 1012.0 |
| 20260906110554 | 24 | 11 | 0.0 | 0.0 | 0.00 | 0.00 | 0.00 | 57 | 1012.0 |
| 20260906110033 | 24 | 11 | 0.0 | 0.0 | 0.00 | 0.00 | 0.00 | 58 | 1012.0 |
| 20260906105513 | 24 | 11 | 0.0 | 0.0 | 0.00 | 0.00 | 0.00 | 59 | 1012.0 |
| 20260906105059 | 24 | 11 | 0.0 | 0.0 | 0.00 | 0.00 | 0.00 | 60 | 1012.1 |
| 20260906104536 | 24 | 11 | 0.0 | 0.0 | 0.00 | 0.00 | 0.00 | 60 | 1012.0 |
| 20260906104017 | 25 | 12 | 0.0 | 0.0 | 0.00 | 0.00 | 0.00 | 61 | 1012.1 |
| 20260906103559 | 25 | 12 | 0.0 | 0.0 | 0.00 | 0.00 | 0.00 | 61 | 1012.0 |
| 20260906103057 | 25 | 11 | 0.0 | 0.0 | 0.00 | 0.00 | 0.00 | 61 | 1012.0 |
| 20260906102519 | 25 | 11 | 0.0 | 0.0 | 0.00 | 0.00 | 0.00 | 61 | 1011.9 |
| 20260906102103 | 25 | 11 | 0.0 | 0.0 | 0.00 | 0.00 | 0.00 | 61 | 1011.9 |
| 20260906101542 | 25 | 12 | 0.0 | 0.0 | 0.00 | 0.00 | 0.00 | 62 | 1011.9 |
| 20260906101021 | 25 | 11 | 0.0 | 0.0 | 0.00 | 0.00 | 0.00 | 64 | 1011.9 |
| 20260906100504 | 25 | 11 | 0.0 | 0.0 | 0.00 | 0.00 | 0.00 | 65 | 1011.8 |
| 20260906100045 | 25 | 11 | 0.0 | 0.0 | 0.00 | 0.00 | 0.00 | 66 | 1011.8 |
| 20260906095524 | 25 | 11 | 0.0 | 0.0 | 0.00 | 0.00 | 0.00 | 66 | 1011.6 |
| 20260906095004 | 25 | 11 | 0.0 | 0.0 | 0.00 | 0.00 | 0.00 | 67 | 1011.7 |
| 20260906094548 | 25 | 11 | 0.0 | 0.0 | 0.00 | 0.00 | 0.00 | 67 | 1011.7 |
| 20260906094027 | 25 | 11 | 0.0 | 0.0 | 0.00 | 0.00 | 0.00 | 68 | 1011.6 |
| 20260906093510 | 25 | 11 | 0.0 | 0.0 | 0.00 | 0.00 | 0.00 | 68 | 1011.5 |
| 20260906093057 | 25 | 11 | 0.0 | 0.0 | 0.00 | 0.00 | 0.00 | 67 | 1011.5 |
| 20260906092530 | 25 | 11 | 0.0 | 0.0 | 0.00 | 0.00 | 0.00 | 67 | 1011.5 |
| 20260906092015 | 25 | 12 | 0.0 | 0.0 | 0.00 | 0.00 | 0.00 | 68 | 1011.5 |
| 20260906091554 | 25 | 11 | 0.0 | 0.0 | 0.00 | 0.00 | 0.00 | 69 | 1011.4 |
| 20260906091033 | 25 | 11 | 0.0 | 0.0 | 0.00 | 0.00 | 0.00 | 68 | 1011.3 |
| 20260906090513 | 25 | 11 | 0.0 | 0.0 | 0.00 | 0.00 | 0.00 | 68 | 1011.4 |
| 20260906090115 | 25 | 11 | 0.0 | 0.0 | 0.00 | 0.00 | 0.00 | 67 | 1011.3 |
| 20260906085538 | 25 | 11 | 0.0 | 0.0 | 0.00 | 0.00 | 0.00 | 67 | 1011.2 |
| 20260906085018 | 25 | 11 | 0.0 | 0.0 | 0.00 | 0.00 | 0.00 | 67 | 1011.3 |
| 20260906084610 | 25 | 11 | 0.0 | 0.0 | 0.00 | 0.00 | 0.00 | 67 | 1011.3 |
| 20260906084042 | 25 | 11 | 0.0 | 0.0 | 0.00 | 0.00 | 0.00 | 66 | 1011.3 |
| 20260906083519 | 25 | 11 | 0.0 | 0.0 | 0.00 | 0.00 | 0.00 | 66 | 1011.2 |
| 20260906083111 | 25 | 11 | 0.0 | 0.0 | 0.00 | 0.00 | 0.00 | 66 | 1011.3 |
| 20260906082542 | 25 | 11 | 0.0 | 0.0 | 0.00 | 0.00 | 0.00 | 65 | 1011.2 |
| 20260906082025 | 25 | 12 | 0.0 | 0.0 | 0.00 | 0.00 | 0.00 | 66 | 1011.3 |
| 20260906081501 | 25 | 11 | 0.0 | 0.0 | 0.00 | 0.00 | 0.00 | 68 | 1011.3 |
| 20260906081045 | 25 | 11 | 0.0 | 0.0 | 0.00 | 0.00 | 0.00 | 68 | 1011.2 |
| 20260906080526 | 25 | 11 | 0.0 | 0.0 | 0.00 | 0.00 | 0.00 | 67 | 1011.2 |
| 20260906080007 | 25 | 11 | 0.0 | 0.0 | 0.00 | 0.00 | 0.00 | 69 | 1011.1 |
| 20260906075550 | 25 | 11 | 0.0 | 0.0 | 0.00 | 0.00 | 0.00 | 69 | 1011.1 |
| 20260906075028 | 25 | 11 | 0.0 | 0.0 | 0.00 | 0.00 | 0.00 | 70 | 1011.1 |
| 20260906074509 | 25 | 11 | 0.0 | 0.0 | 0.00 | 0.00 | 0.00 | 70 | 1011.2 |
| 20260906074053 | 25 | 11 | 0.0 | 0.0 | 0.00 | 0.00 | 0.00 | 70 | 1011.2 |
| 20260906073532 | 25 | 11 | 0.0 | 0.0 | 0.00 | 0.00 | 0.00 | 71 | 1011.1 |
| 20260906073011 | 26 | 11 | 0.0 | 0.0 | 0.00 | 0.00 | 0.00 | 71 | 1011.1 |
| 20260906072555 | 26 | 11 | 0.0 | 0.0 | 0.00 | 0.00 | 0.00 | 71 | 1011.1 |
| 20260906072034 | 26 | 11 | 0.0 | 0.0 | 0.00 | 0.00 | 0.00 | 71 | 1011.1 |
| 20260906071514 | 26 | 11 | 0.0 | 0.0 | 0.00 | 0.00 | 0.00 | 71 | 1011.1 |
| 20260906071058 | 26 | 11 | 0.0 | 0.0 | 0.00 | 0.00 | 0.00 | 71 | 1011.2 |
| 20260906070512 | 26 | 11 | 0.0 | 3.2 | 0.00 | 0.00 | 0.00 | 71 | 1011.2 |
| 20260906070051 | 26 | 12 | 0.0 | 3.2 | 0.00 | 0.00 | 0.00 | 71 | 1011.2 |
| 20260906065537 | 26 | 341 | 0.0 | 1.6 | 0.00 | 0.00 | 0.00 | 71 | 1011.3 |
| 20260906065011 | 26 | 341 | 0.0 | 0.0 | 0.00 | 0.00 | 0.00 | 71 | 1011.2 |
| 20260906064554 | 26 | 340 | 0.0 | 0.0 | 0.00 | 0.00 | 0.00 | 71 | 1011.3 |
| 20260906064034 | 26 | 341 | 0.0 | 0.0 | 0.00 | 0.00 | 0.00 | 71 | 1011.4 |
| 20260906063513 | 26 | 341 | 0.0 | 0.0 | 0.00 | 0.00 | 0.00 | 71 | 1011.4 |
| 20260906063057 | 26 | 341 | 0.0 | 0.0 | 0.00 | 0.00 | 0.00 | 71 | 1011.4 |
| 20260906062536 | 26 | 340 | 0.0 | 0.0 | 0.00 | 0.00 | 0.00 | 71 | 1011.4 |
| 20260906062016 | 26 | 340 | 0.0 | 0.0 | 0.00 | 0.00 | 0.00 | 71 | 1011.4 |
| 20260906061601 | 26 | 341 | 0.0 | 0.0 | 0.00 | 0.00 | 0.00 | 71 | 1011.4 |
| 20260906061036 | 26 | 341 | 0.0 | 0.0 | 0.00 | 0.00 | 0.00 | 71 | 1011.4 |
| 20260906060515 | 26 | 340 | 0.0 | 0.0 | 0.00 | 0.00 | 0.00 | 71 | 1011.5 |
| 20260906060059 | 26 | 341 | 0.0 | 0.0 | 0.00 | 0.00 | 0.00 | 71 | 1011.5 |
| 20260906055538 | 26 | 340 | 0.0 | 0.0 | 0.00 | 0.00 | 0.00 | 71 | 1011.6 |
| 20260906055018 | 26 | 341 | 0.0 | 0.0 | 0.00 | 0.00 | 0.00 | 71 | 1011.6 |
| 20260906054601 | 26 | 341 | 0.0 | 0.0 | 0.00 | 0.00 | 0.00 | 71 | 1011.5 |
| 20260906054042 | 26 | 341 | 0.0 | 0.0 | 0.00 | 0.00 | 0.00 | 71 | 1011.7 |
| 20260906053521 | 26 | 341 | 0.0 | 0.0 | 0.00 | 0.00 | 0.00 | 71 | 1011.8 |
| 20260906053003 | 26 | 341 | 0.0 | 0.0 | 0.00 | 0.00 | 0.00 | 71 | 1011.7 |
| 20260906052545 | 26 | 340 | 0.0 | 0.0 | 0.00 | 0.00 | 0.00 | 71 | 1011.7 |
| 20260906052025 | 26 | 341 | 0.0 | 0.0 | 0.00 | 0.00 | 0.00 | 70 | 1011.7 |
| 20260906051506 | 26 | 340 | 0.0 | 0.0 | 0.00 | 0.00 | 0.00 | 70 | 1011.6 |
| 20260906051048 | 26 | 340 | 0.0 | 0.0 | 0.00 | 0.00 | 0.00 | 70 | 1011.5 |
| 20260906050528 | 27 | 340 | 0.0 | 0.0 | 0.00 | 0.00 | 0.00 | 69 | 1011.5 |
| 20260906050007 | 27 | 341 | 0.0 | 0.0 | 0.00 | 0.00 | 0.00 | 69 | 1011.5 |
| 20260906045556 | 27 | 341 | 0.0 | 0.0 | 0.00 | 0.00 | 0.00 | 68 | 1011.5 |
| 20260906045030 | 27 | 341 | 0.0 | 0.0 | 0.00 | 0.00 | 0.00 | 68 | 1011.6 |
| 20260906044510 | 27 | 340 | 0.0 | 0.0 | 0.00 | 0.00 | 0.00 | 67 | 1011.7 |
| 20260906044058 | 27 | 341 | 0.0 | 0.0 | 0.00 | 0.00 | 0.00 | 67 | 1011.7 |
| 20260906043534 | 27 | 340 | 0.0 | 0.0 | 0.00 | 0.00 | 0.00 | 67 | 1011.7 |
| 20260906043013 | 28 | 341 | 0.0 | 0.0 | 0.00 | 0.00 | 0.00 | 66 | 1011.7 |
| 20260906042555 | 28 | 341 | 0.0 | 0.0 | 0.00 | 0.00 | 0.00 | 66 | 1011.5 |
| 20260906042035 | 28 | 341 | 0.0 | 0.0 | 0.00 | 0.00 | 0.00 | 65 | 1011.5 |
| 20260906041515 | 28 | 340 | 0.0 | 0.0 | 0.00 | 0.00 | 0.00 | 65 | 1011.5 |
| 20260906041059 | 28 | 341 | 0.0 | 0.0 | 0.00 | 0.00 | 0.00 | 65 | 1011.5 |
| 20260906040538 | 28 | 341 | 0.0 | 0.0 | 0.00 | 0.00 | 0.00 | 65 | 1011.4 |
| 20260906040030 | 28 | 340 | 0.0 | 0.0 | 0.00 | 0.00 | 0.00 | 65 | 1011.5 |
| 20260906035601 | 28 | 341 | 0.0 | 0.0 | 0.00 | 0.00 | 0.00 | 65 | 1011.4 |
| 20260906035041 | 28 | 340 | 0.0 | 0.0 | 0.00 | 0.00 | 0.00 | 65 | 1011.3 |
| 20260906034526 | 28 | 341 | 0.0 | 0.0 | 0.00 | 0.00 | 0.00 | 65 | 1011.2 |
| 20260906034106 | 28 | 341 | 0.0 | 0.0 | 0.00 | 0.00 | 0.00 | 65 | 1011.1 |
| 20260906033543 | 28 | 340 | 0.0 | 0.0 | 0.00 | 0.00 | 0.00 | 65 | 1011.1 |
| 20260906033024 | 28 | 341 | 0.0 | 0.0 | 0.00 | 0.00 | 0.00 | 66 | 1011.0 |
| 20260906032603 | 28 | 340 | 0.0 | 0.0 | 0.00 | 0.00 | 0.00 | 66 | 1011.0 |
| 20260906032043 | 28 | 340 | 0.0 | 0.0 | 0.00 | 0.00 | 0.00 | 67 | 1011.0 |
| 20260906031534 | 28 | 340 | 0.0 | 0.0 | 0.00 | 0.00 | 0.00 | 67 | 1011.0 |
| 20260906031002 | 28 | 341 | 0.0 | 0.0 | 0.00 | 0.00 | 0.00 | 67 | 1010.9 |
| 20260906030545 | 28 | 340 | 0.0 | 0.0 | 0.00 | 0.00 | 0.00 | 67 | 1010.9 |
| 20260906030024 | 28 | 340 | 0.0 | 0.0 | 0.00 | 0.00 | 0.00 | 67 | 1010.8 |
| 20260906025502 | 28 | 341 | 0.0 | 0.0 | 0.00 | 0.00 | 0.00 | 67 | 1010.7 |
| 20260906025046 | 28 | 340 | 0.0 | 0.0 | 0.00 | 0.00 | 0.00 | 67 | 1010.7 |
| 20260906024525 | 28 | 340 | 0.0 | 0.0 | 0.00 | 0.00 | 0.00 | 67 | 1010.6 |
| 20260906024004 | 29 | 340 | 0.0 | 0.0 | 0.00 | 0.00 | 0.00 | 67 | 1010.5 |
| 20260906023548 | 29 | 340 | 0.0 | 0.0 | 0.00 | 0.00 | 0.00 | 67 | 1010.5 |
| 20260906023027 | 29 | 341 | 0.0 | 0.0 | 0.00 | 0.00 | 0.00 | 68 | 1010.5 |
| 20260906022507 | 29 | 340 | 0.0 | 0.0 | 0.00 | 0.00 | 0.00 | 67 | 1010.4 |
| 20260906022049 | 29 | 341 | 0.0 | 0.0 | 0.00 | 0.00 | 0.00 | 67 | 1010.4 |
| 20260906021528 | 29 | 341 | 0.0 | 0.0 | 0.00 | 0.00 | 0.00 | 67 | 1010.4 |
| 20260906021008 | 30 | 341 | 0.0 | 0.0 | 0.00 | 0.00 | 0.00 | 67 | 1010.3 |
| 20260906020551 | 30 | 341 | 0.0 | 0.0 | 0.00 | 0.00 | 0.00 | 67 | 1010.2 |
| 20260906020029 | 30 | 340 | 0.0 | 0.0 | 0.00 | 0.00 | 0.00 | 66 | 1010.1 |
| 20260906015510 | 30 | 340 | 0.0 | 0.0 | 0.00 | 0.00 | 0.00 | 66 | 1010.0 |
| 20260906015053 | 30 | 340 | 0.0 | 0.0 | 0.00 | 0.00 | 0.00 | 65 | 1010.0 |
| 20260906014532 | 30 | 340 | 0.0 | 0.0 | 0.00 | 0.00 | 0.00 | 65 | 1009.9 |
| 20260906014010 | 30 | 340 | 0.0 | 0.0 | 0.00 | 0.00 | 0.00 | 64 | 1009.9 |
| 20260906013554 | 30 | 340 | 0.0 | 0.0 | 0.00 | 0.00 | 0.00 | 63 | 1009.9 |
| 20260906013054 | 30 | 340 | 0.0 | 0.0 | 0.00 | 0.00 | 0.00 | 63 | 1009.8 |
| 20260906012513 | 30 | 340 | 0.0 | 0.0 | 0.00 | 0.00 | 0.00 | 62 | 1009.8 |
| 20260906012056 | 31 | 341 | 0.0 | 0.0 | 0.00 | 0.00 | 0.00 | 62 | 1009.9 |
| 20260906011545 | 31 | 340 | 0.0 | 0.0 | 0.00 | 0.00 | 0.00 | 62 | 1009.8 |
| 20260906011018 | 31 | 340 | 0.0 | 0.0 | 0.00 | 0.00 | 0.00 | 62 | 1009.8 |
| 20260906010559 | 31 | 340 | 0.0 | 0.0 | 0.00 | 0.00 | 0.00 | 62 | 1009.7 |
| 20260906010039 | 31 | 340 | 0.0 | 0.0 | 0.00 | 0.00 | 0.00 | 61 | 1009.6 |
| 20260906005518 | 31 | 341 | 0.0 | 0.0 | 0.00 | 0.00 | 0.00 | 61 | 1009.6 |
| 20260906005101 | 31 | 340 | 0.0 | 0.0 | 0.00 | 0.00 | 0.00 | 61 | 1009.6 |
| 20260906004540 | 31 | 340 | 0.0 | 0.0 | 0.00 | 0.00 | 0.00 | 60 | 1009.6 |
| 20260906004020 | 32 | 341 | 0.0 | 0.0 | 0.00 | 0.00 | 0.00 | 60 | 1009.5 |
| 20260906003606 | 32 | 340 | 0.0 | 0.0 | 0.00 | 0.00 | 0.00 | 59 | 1009.6 |
| 20260906003044 | 32 | 340 | 0.0 | 0.0 | 0.00 | 0.00 | 0.00 | 58 | 1009.6 |
| 20260906002523 | 32 | 340 | 0.0 | 0.0 | 0.00 | 0.00 | 0.00 | 57 | 1009.6 |
| 20260906002001 | 32 | 341 | 0.0 | 0.0 | 0.00 | 0.00 | 0.00 | 57 | 1009.7 |
| 20260906001541 | 32 | 341 | 0.0 | 0.0 | 0.00 | 0.00 | 0.00 | 56 | 1009.7 |
| 20260906001021 | 32 | 341 | 0.0 | 0.0 | 0.00 | 0.00 | 0.00 | 56 | 1009.6 |
| 20260906000501 | 33 | 341 | 0.0 | 0.0 | 0.00 | 0.00 | 0.00 | 55 | 1009.6 |
| 20260906000051 | 33 | 341 | 0.0 | 0.0 | 0.00 | 0.00 | 0.00 | 55 | 1009.6 |
| 20260905235524 | 33 | 341 | 0.0 | 0.0 | 0.00 | 0.00 | 0.00 | 54 | 1009.5 |
| 20260905235004 | 33 | 340 | 0.0 | 0.0 | 0.00 | 0.00 | 0.00 | 53 | 1009.6 |
| 20260905234554 | 33 | 340 | 0.0 | 0.0 | 0.00 | 0.00 | 0.00 | 52 | 1009.5 |
| 20260905234026 | 33 | 340 | 0.0 | 0.0 | 0.00 | 0.00 | 0.00 | 52 | 1009.5 |
| 20260905233507 | 33 | 341 | 0.0 | 1.6 | 0.00 | 0.00 | 0.00 | 52 | 1009.5 |
| 20260905233049 | 33 | 340 | 0.0 | 1.6 | 0.00 | 0.00 | 0.00 | 52 | 1009.5 |
| 20260905232528 | 33 | 341 | 0.0 | 0.0 | 0.00 | 0.00 | 0.00 | 52 | 1009.5 |
| 20260905232007 | 33 | 341 | 0.0 | 0.0 | 0.00 | 0.00 | 0.00 | 51 | 1009.4 |
| 20260905231554 | 34 | 341 | 0.0 | 1.6 | 0.00 | 0.00 | 0.00 | 51 | 1009.4 |
| 20260905231030 | 34 | 340 | 0.0 | 1.6 | 0.00 | 0.00 | 0.00 | 50 | 1009.4 |
| 20260905230508 | 34 | 341 | 0.0 | 1.6 | 0.00 | 0.00 | 0.00 | 50 | 1009.4 |
| 20260905225532 | 34 | 341 | 0.0 | 1.6 | 0.00 | 0.00 | 0.00 | 51 | 1009.4 |
| 20260905225012 | 34 | 341 | 0.0 | 4.8 | 0.00 | 0.00 | 0.00 | 50 | 1009.4 |
| 20260905224556 | 34 | 341 | 0.0 | 4.8 | 0.00 | 0.00 | 0.00 | 50 | 1009.3 |